Regional Weather Roundup
Issued by NWS Columbia, SC

Current Version | Previous Version | Text Only | Print | Product List | Glossary On
Versions: 1 2 3 4 5 6 7 8 9 10 11 12 13 14 15 16 17 18 19 20 21 22 23 24 25 26 27 28 29 30 31 32 33 34 35 36 37 38 39 40 41 42 43 44 45 46 47 48 49 50
000
ASUS42 KCAE 231810
RWRCAE
REGIONAL WEATHER ROUNDUP
NATIONAL WEATHER SERVICE COLUMBIA SC
200 PM EDT WED AUG 23 2017

NOTE: "FAIR" INDICATES FEW OR NO CLOUDS BELOW 12,000 FEET WITH NO
SIGNIFICANT WEATHER AND/OR OBSTRUCTIONS TO VISIBILITY.

NOT ALL STATIONS ARE QUALITY CONTROLLED BY THE NATIONAL
WEATHER SERVICE. USE DATA WITH CAUTION...ESPECIALLY
DEWPOINT OBSERVATIONS.

SCZ001>056-GAZ040-063>065-077-231900-
...UPSTATE SOUTH CAROLINA...

CITY           SKY/WX    TMP DP  RH WIND       PRES   REMARKS
ANDERSON       MOSUNNY   92  68  45 W7        29.89F HX  96
6HR MIN TEMP:  75; 6HR MAX TEMP:  92;

LIBERTY        PTCLDY    92  70  48 NW3       29.90F HX  97
6HR MIN TEMP:  72; 6HR MAX TEMP:  92;

SPARTANBURG    PTSUNNY   88  66  48 N8        29.89F
CLEMSON        PTSUNNY   90  69  50 NW3       29.91F
6HR MIN TEMP:  74; 6HR MAX TEMP:  91;

GREENVILLE     MOSUNNY   90  69  50 W8        29.92F
6HR MIN TEMP:  75; 6HR MAX TEMP:  91;

GREENWOOD      MOSUNNY   91  70  49 VRB6G21   29.91F HX  96
6HR MIN TEMP:  75; 6HR MAX TEMP:  92;

GREER          MOSUNNY   90  67  46 NE6       29.90F
6HR MIN TEMP:  75; 6HR MAX TEMP:  91;

ROCK HILL      PTSUNNY   88  73  61 CALM      29.89F HX  95
6HR MIN TEMP:  73; 6HR MAX TEMP:  90;

CHESTER        MOCLDY    90  63  40 NW3       29.89F
LAURENS        PTCLDY    91  66  43 SW10G18   29.89F


...CENTRAL SOUTH CAROLINA...

CITY           SKY/WX    TMP DP  RH WIND       PRES   REMARKS
COLUMBIA APT   MOSUNNY   95  70  44 VRB6      29.86F HX 101
6HR MIN TEMP:  78; 6HR MAX TEMP:  96;

COLUMBIA OWENS MOSUNNY   95  68  41 W6        29.87F HX  99
6HR MIN TEMP:  77; 6HR MAX TEMP:  95;

MCENTIRE ANGB  MOSUNNY   95  72  47 S10       29.88F HX 102
6HR MIN TEMP:  75; 6HR MAX TEMP:  95;

ORANGEBURG     MOSUNNY   96  68  39 W10G20    29.88F HX 101
6HR MIN TEMP:  75; 6HR MAX TEMP:  96;

SUMTER SHAW    MOSUNNY   96  69  41 SW13G18   29.84F HX 101
6HR MIN TEMP:  77; 6HR MAX TEMP:  96;

NEWBERRY       PTCLDY    93  70  46 SW9       29.91F HX  99
AIKEN          FAIR      90  72  55 SW6       29.93F HX  96
BARNWELL       FAIR      95  72  46 W10G16    29.89F HX 103
MANNING        FAIR      91  73  55 CALM      29.89F HX 100
CAMDEN         FAIR      97  66  36 W9G17     29.87F HX 100
LANCASTER      MOCLDY    90  68  48 SW3       29.87F
WINNSBORO      CLEAR     93  68  43 SW8       29.88F HX  97


...EASTERN AND COASTAL SOUTH CAROLINA...

CITY           SKY/WX    TMP DP  RH WIND       PRES   REMARKS
MYRTLE BEACH   PTSUNNY   90  79  70 S14       29.89F HX 105
N MYRTLE BCH   SUNNY     88  76  67 S14       29.88F HX  99
6HR MIN TEMP:  78; 6HR MAX TEMP:  88;

CONWAY         FAIR      90  77  66 CALM      29.88F HX 102
MARION         FAIR      91  72  52 W7G17     29.88S HX  98
HARTSVILLE     FAIR      95  70  43 SW8       29.86F HX 101
FLORENCE       PTSUNNY   93  73  52 SW8       29.86F HX 102
6HR MIN TEMP:  77; 6HR MAX TEMP:  94;

DARLINGTON     CLOUDY    95  72  47 S10       29.86F HX 103
6HR MIN TEMP:  76; 6HR MAX TEMP:  95;

CHARLESTON APT MOSUNNY   92  76  59 W7        29.90F HX 104
6HR MIN TEMP:  78; 6HR MAX TEMP:  92;

MOUNT PLEASANT FAIR      91  79  66 S9        29.90F HX 107
WALTERBORO     PTCLDY    90  73  58 W5        29.90F HX  98
BEAUFORT       MOSUNNY   91  77  63 SW3       29.90F HX 104
6HR MIN TEMP:  79; 6HR MAX TEMP:  93;



...EASTERN GEORGIA...

CITY           SKY/WX    TMP DP  RH WIND       PRES   REMARKS
AUGUSTA BUSH F MOSUNNY   95  73  48 W12       29.88F HX 104
6HR MIN TEMP:  77; 6HR MAX TEMP:  95;

AUGUSTA DANIEL MOSUNNY   94  69  44 SW8       29.91F HX  99
6HR MIN TEMP:  77; 6HR MAX TEMP:  95;

THOMSON        SUNNY     91  71  51 NW9       29.95F HX  97
6HR MIN TEMP:  75; 6HR MAX TEMP:  91;

WASHINGTON     FAIR     N/A N/A N/A W10       29.91F
CLAXTON        FAIR      94  74  51 S6        29.91F HX 105
6HR MIN TEMP:  76; 6HR MAX TEMP:  94;

SYLVANIA       PTCLDY    94  76  56 SW6       29.92S HX 107
6HR MIN TEMP:  76; 6HR MAX TEMP:  94;

STATESBORO     MOSUNNY   94  68  43 W5        29.91F HX  98
6HR MIN TEMP:  77; 6HR MAX TEMP:  94;

SAVANNAH       PTSUNNY   93  74  53 VRB3      29.91F HX 103
6HR MIN TEMP:  77; 6HR MAX TEMP:  94;



...SOUTHERN NORTH CAROLINA...

CITY           SKY/WX    TMP DP  RH WIND       PRES   REMARKS
CHARLOTTE      PTSUNNY   92  71  50 VRB3      29.89F HX  98
6HR MIN TEMP:  76; 6HR MAX TEMP:  92;

MONROE         SUNNY     90  70  51 VRB5      29.87F HX  95
6HR MIN TEMP:  73; 6HR MAX TEMP:  90;

WADESBORO      CLEAR     94  67  40 SW10      29.85F HX  97
ROCKINGHAM     PTCLDY    93  70  47 SW5       29.86F HX  99
RUTHERFORDTON  MOSUNNY   87  71  60 N8        29.93F
ASHEVILLE      PTSUNNY   80  65  59 N13G20    30.01F
6HR MIN TEMP:  68; 6HR MAX TEMP:  81;


$$



USA.gov is the U.S. government's official web portal to all federal, state and local government web resources and services.